Tracking 29892 objects as of 21-Nov-2024
HD Live streaming from Space Station
objects crossing your sky now

SL-16 DEB

Track SL-16 DEB now!
10-day predictions


NORAD ID: 22614
Int'l Code: 1993-016Y
Perigee: 844.1 km
Apogee: 1,034.7 km
Inclination: 71.0 °
Period: 103.7 minutes
Semi major axis: 7310 km
RCS: 0.0064 m2 (small)
Launch date: March 26, 1993
Source: Commonwealth of Independent States (former USSR) (CIS)
Launch site: TYURATAM MISSILE AND SPACE COMPLEX (TTMTR)

Note: This is SATELLITE DEBRIS
Your satellite tracking list
Your tracking list is empty




NASA's NSSDC Master Catalog

Two Line Element Set (TLE):
1 22614U 93016Y   24324.99153917  .00000690  00000-0  56747-3 0  9990
2 22614  70.9977 180.4728 0130373 271.2950 207.3004 13.88960824600606
Source of the keplerian elements: AFSPC